Theta_e
311 311 311 311 312 312 311 312 313 313 314 315 315 314 314 314 314 315 319 325 326 326 328 325 324 329 335 330 337 337 338 339 340 340 339 341 343 344 344 340 342 340 340 338 336
311 311 311 311 312 312 312 313 314 315 315 315 316 316 315 314 315 317 321 325 325 325 325 325 326 325 328 335 335 336 336 339 337 335 337 340 343 343 342 341 339 340 339 338 335
311 311 311 311 311 312 313 314 314 315 316 316 316 317 316 315 317 321 323 324 322 325 324 324 329 330 329 336 336 336 336 338 338 339 338 340 341 341 341 341 339 338 337 335 336
311 312 311 311 311 312 313 314 315 316 316 316 317 318 317 319 323 326 323 326 326 324 323 326 327 329 335 335 336 338 337 336 338 339 339 339 342 343 343 342 338 336 335 336 338
311 312 312 311 311 313 313 314 315 316 316 316 317 318 318 320 329 329 329 324 325 323 324 329 332 334 333 336 336 338 336 337 338 339 341 341 343 342 341 339 337 336 336 338 337
311 312 312 311 311 312 313 315 315 316 316 316 317 319 320 321 328 329 328 327 325 322 326 326 330 334 335 336 335 336 337 336 335 341 342 342 341 341 340 337 336 334 332 332 337
311 312 312 312 312 313 313 315 316 316 317 317 317 319 320 323 328 325 327 325 326 327 326 328 329 335 335 335 336 336 337 335 333 337 342 341 342 343 339 337 336 334 332 329 329
311 312 312 312 312 313 313 315 316 317 317 317 318 320 320 322 325 327 324 324 325 328 328 330 333 334 334 335 334 333 333 334 332 334 341 340 344 340 339 338 336 335 334 334 332
312 312 312 312 312 313 314 316 317 317 318 318 318 320 320 323 324 327 328 327 327 327 327 327 333 334 334 331 330 333 332 336 338 336 338 339 344 340 338 338 336 336 335 334 333
312 312 312 312 312 313 314 316 318 318 318 319 323 322 321 323 326 328 327 327 327 327 325 326 332 327 328 325 329 331 338 336 339 336 336 340 343 339 337 337 336 336 335 334 333
312 312 312 312 312 313 315 317 319 322 321 319 321 322 323 323 324 326 326 328 328 327 325 325 323 325 326 328 328 332 336 336 335 334 335 338 344 341 338 337 336 334 334 334 334
312 312 312 312 313 314 316 317 320 323 321 323 324 323 321 322 323 324 325 326 326 325 325 322 323 323 324 327 331 334 336 336 334 335 336 340 344 341 339 338 337 335 335 335 335
313 312 312 312 313 316 317 318 321 323 321 324 325 325 322 321 323 324 325 326 325 325 324 323 324 324 325 331 332 333 335 334 334 340 340 340 342 339 338 336 335 337 337 336 336
313 313 312 313 315 318 321 323 323 325 317 321 325 323 321 322 324 324 325 325 324 325 323 323 323 324 323 331 330 331 329 332 333 334 337 337 341 340 336 335 336 336 336 337 337
314 313 313 313 317 323 323 322 325 325 321 323 323 324 322 322 324 326 326 326 326 325 324 324 323 324 331 331 329 329 331 330 330 328 328 339 337 334 332 334 333 332 333 336 336
314 313 313 314 316 320 323 324 326 318 322 324 328 325 325 323 324 325 326 326 326 324 323 322 322 324 327 330 329 331 332 327 321 320 323 332 336 333 332 333 332 325 331 331 329
314 313 313 314 318 323 322 325 322 320 321 330 330 329 329 325 323 324 324 324 324 324 323 322 323 325 331 332 329 329 326 329 329 326 324 334 335 331 330 332 328 325 328 328 327
314 313 314 314 316 318 324 320 325 325 329 330 330 330 332 327 325 324 323 327 330 322 322 324 326 331 331 330 332 332 326 329 329 326 323 333 337 333 330 331 328 326 327 325 327
315 314 314 314 317 322 325 321 322 327 332 332 331 334 333 333 332 330 331 332 331 329 328 331 332 330 332 332 332 332 328 324 322 321 322 330 331 330 329 329 328 326 323 324 324
317 315 316 314 317 323 319 320 323 331 332 331 334 334 335 334 332 333 333 332 333 331 328 330 332 333 330 330 329 330 325 327 322 329 328 333 335 332 330 330 327 321 323 323 323
319 323 322 314 318 322 319 320 326 332 333 333 332 334 335 333 334 335 332 333 331 332 330 329 329 331 327 327 328 324 323 322 320 323 326 329 329 326 327 327 322 321 322 323 320
320 321 321 316 320 318 319 322 325 331 331 333 333 334 333 334 334 333 334 333 332 333 334 329 326 331 329 325 325 324 324 321 324 323 321 322 325 323 322 323 323 322 323 321 317
322 326 324 320 319 318 319 323 324 330 332 333 335 332 333 333 332 333 335 333 332 332 327 328 325 327 326 319 323 328 326 321 319 319 322 325 325 323 321 320 322 322 322 321 320
324 329 332 323 322 319 321 322 324 331 333 332 333 332 332 332 331 333 334 334 333 329 328 329 327 326 327 324 323 327 325 322 319 320 320 324 326 325 322 320 320 321 320 320 314
331 330 336 332 329 323 320 327 330 333 332 331 331 332 332 332 335 333 334 333 331 328 330 324 326 329 330 329 330 329 327 323 322 320 321 320 328 326 323 321 322 322 319 315 314
339 339 338 332 331 330 328 332 334 331 332 332 331 333 333 333 332 330 333 332 331 329 330 325 326 331 331 328 331 327 330 323 323 327 328 328 329 323 323 323 322 323 316 313 315
338 339 339 331 328 330 333 334 334 333 331 333 332 332 331 332 332 330 332 331 330 330 329 329 329 329 331 330 331 329 332 328 325 326 325 326 324 318 314 316 316 313 313 315 315
Wind_Speed
18 16 14 12 8 7 5 5 5 5 5 4 3 2 1 5 8 11 14 13 8 7 9 8 9 9 7 6 6 3 3 0 2 2 3 15 6 5 3 14 5 6 8 7 27
17 17 15 12 8 6 4 4 5 5 5 5 3 2 2 6 8 12 13 14 9 6 5 8 10 9 4 3 3 3 3 4 3 4 5 11 10 13 7 8 2 7 8 24 29
17 16 15 12 8 5 3 3 4 5 5 5 4 2 3 5 5 7 13 13 9 6 5 8 7 8 4 4 4 4 4 2 2 13 17 12 8 7 17 4 12 22 30 30 28
17 15 14 12 8 4 3 3 4 4 4 4 4 2 4 8 5 6 12 12 9 8 6 8 11 6 5 4 4 4 1 2 2 3 13 12 9 7 2 4 14 25 27 29 28
16 15 13 11 7 4 1 2 2 3 3 4 3 2 4 4 2 1 11 17 11 8 10 13 16 11 6 7 7 4 2 1 4 12 8 16 6 7 6 15 17 21 22 25 28
16 14 13 11 6 3 1 0 1 1 2 3 3 1 2 2 3 2 8 12 10 12 11 14 12 10 9 7 2 10 9 4 1 10 11 10 7 3 7 17 21 20 17 19 27
16 14 13 10 6 3 2 2 0 2 2 3 3 1 5 4 2 4 6 9 9 9 6 7 9 6 9 6 2 6 3 4 8 13 7 18 1 3 21 19 18 18 19 20 22
16 14 12 10 6 2 3 3 1 2 3 3 2 2 4 4 4 2 5 10 10 7 8 4 8 10 2 13 5 5 3 4 6 11 10 10 3 7 27 25 24 21 20 18 19
16 14 12 10 6 2 4 4 3 4 3 2 3 3 3 6 8 2 6 7 6 8 12 7 9 5 8 5 4 3 4 2 4 13 6 6 4 16 26 28 25 25 22 19 20
16 13 12 9 5 3 4 3 4 5 3 3 4 2 9 12 7 5 6 8 10 8 1 8 8 4 3 3 6 6 4 5 6 6 1 5 5 16 21 21 24 25 22 22 22
16 13 12 9 4 3 3 3 4 3 4 8 6 7 5 12 7 11 11 13 13 8 2 2 4 4 12 11 2 5 4 4 2 6 7 7 9 17 24 19 17 25 27 24 25
16 13 11 8 4 3 4 2 2 4 9 17 20 20 17 15 6 18 12 8 5 5 2 5 4 11 4 4 7 7 5 7 4 3 4 6 4 10 17 18 20 22 22 26 23
16 13 10 7 2 3 5 3 9 10 4 12 9 16 16 13 13 22 10 12 6 4 5 6 11 5 3 4 9 3 6 6 7 4 4 6 1 3 6 11 13 17 24 26 26
16 12 9 5 1 1 4 10 12 1 4 5 4 3 8 7 5 22 21 14 3 9 5 6 8 1 4 6 5 5 9 6 7 6 4 3 4 5 6 7 8 14 22 24 25
16 12 8 3 0 3 4 12 2 4 4 6 3 2 9 12 5 14 19 14 12 9 4 12 4 1 1 6 7 9 7 4 3 3 5 0 2 4 3 5 6 9 8 12 12
15 11 9 5 5 2 9 4 3 6 2 5 4 4 2 3 5 18 5 16 12 4 3 10 3 4 6 4 3 2 1 2 3 3 3 3 5 3 5 6 4 4 9 14 14
14 10 8 5 3 1 10 6 5 3 4 5 3 4 2 4 4 6 6 2 4 2 5 6 6 5 2 2 2 2 5 4 4 4 5 2 1 6 5 5 10 12 17 17 17
13 8 8 6 6 3 4 5 2 4 5 2 3 3 5 8 5 3 4 4 5 4 2 3 7 3 2 5 5 1 6 5 5 4 4 3 3 3 3 10 13 16 19 16 16
10 6 6 4 7 2 2 4 6 5 2 4 2 5 4 2 1 4 3 4 5 3 6 2 4 4 1 2 4 1 3 3 5 2 2 2 5 5 1 3 8 10 15 16 14
10 5 4 9 11 5 5 3 3 3 3 4 3 2 3 5 6 5 3 1 4 5 1 8 3 3 5 7 3 3 2 2 3 2 5 2 4 5 7 9 5 10 22 19 15
7 2 3 17 15 5 3 6 4 2 2 3 5 4 5 3 4 4 2 2 3 3 5 2 3 5 3 1 4 4 3 5 4 3 3 1 5 6 9 11 10 16 20 16 14
4 3 8 21 5 2 3 5 4 4 3 1 2 1 3 2 3 2 3 5 5 4 3 3 4 1 4 4 4 3 2 4 4 3 1 3 6 2 9 11 20 23 20 16 15
4 3 10 14 3 1 4 4 5 5 5 4 2 5 2 4 2 4 2 7 2 3 1 1 3 3 8 6 6 3 3 3 4 3 4 4 6 1 4 11 23 22 18 13 10
3 3 5 8 1 4 3 3 4 7 4 5 5 2 1 4 4 2 3 1 3 5 5 1 3 4 4 6 2 5 6 2 5 3 3 5 3 4 6 7 13 15 12 12 12
5 2 2 2 4 2 1 3 0 1 1 4 3 6 3 7 8 3 2 1 3 2 3 4 1 2 4 6 5 7 5 2 2 3 3 6 5 5 12 9 18 16 10 9 12
3 3 4 3 2 5 5 3 1 1 1 2 6 7 5 4 5 13 3 1 4 3 3 2 2 3 5 4 5 3 10 7 6 3 3 0 5 3 6 14 9 11 10 12 13
3 1 3 5 2 0 2 1 2 2 1 4 7 5 6 4 18 23 10 4 2 6 4 3 2 3 4 7 7 4 5 2 1 1 3 3 5 1 6 5 4 7 11 14 10
Wind_Direction
354 358 0 3 4 8 16 26 35 35 36 36 27 63 148 171 172 180 179 155 134 124 161 162 162 172 179 229 209 92 72 288 280 241 155 147 122 152 117 140 189 215 210 209 162
352 353 356 360 360 6 19 32 41 39 39 38 19 35 158 173 181 191 166 181 189 161 141 152 161 183 203 225 164 89 101 223 243 303 169 170 142 144 130 149 120 171 186 161 165
349 351 351 354 355 3 25 32 48 44 38 38 20 34 144 152 157 179 179 190 208 172 147 162 180 199 159 185 152 159 158 115 247 306 192 169 138 150 142 210 189 164 154 167 174
346 348 349 348 350 354 12 31 42 40 33 36 18 44 142 143 137 140 197 187 196 173 146 147 202 192 141 169 136 118 87 163 270 124 155 162 150 118 210 268 173 165 165 171 179
344 345 346 346 343 340 351 27 37 38 27 28 14 35 157 188 160 10 199 216 215 178 176 177 195 191 160 178 147 128 266 53 213 216 179 158 126 132 101 147 158 163 171 179 184
342 343 342 344 340 320 280 252 26 15 10 2 4 57 190 230 6 328 177 191 188 185 206 206 221 214 128 182 182 174 185 162 113 159 153 125 143 56 135 151 153 164 176 184 192
340 340 339 342 336 307 243 243 339 333 337 326 338 342 232 188 43 51 192 203 185 191 217 273 245 184 136 104 18 120 91 349 249 181 163 136 9 116 157 157 160 179 186 188 195
339 339 337 340 332 296 248 241 267 308 318 308 304 266 242 226 245 139 192 210 217 232 244 265 220 151 150 131 48 37 47 198 187 181 175 154 200 154 162 168 172 194 199 210 219
338 337 335 338 329 284 242 248 291 316 319 282 254 246 251 232 251 207 189 223 227 271 277 223 187 131 142 89 26 43 261 258 310 196 151 186 137 171 176 182 183 196 207 216 228
338 336 334 336 322 275 244 254 286 293 272 250 225 295 243 234 231 216 263 238 263 286 107 178 198 114 54 114 255 207 228 254 235 169 120 168 135 171 186 189 201 199 211 222 225
338 335 333 333 314 263 241 243 281 272 232 229 268 217 266 246 247 256 264 258 259 274 271 35 68 266 244 214 221 188 186 246 238 188 157 195 155 184 185 196 213 211 213 218 230
337 333 332 332 311 256 225 224 63 31 307 283 277 258 253 260 283 255 281 240 197 230 85 7 284 252 270 206 204 141 222 237 268 212 131 150 171 196 192 203 212 220 226 232 236
337 330 331 331 304 209 238 342 323 313 264 299 256 233 227 233 242 260 261 245 206 224 201 188 246 287 226 188 186 205 188 249 215 108 37 116 279 218 225 227 234 228 238 246 246
334 327 329 327 288 197 99 352 329 214 61 280 240 232 186 202 268 246 258 244 250 224 201 221 264 216 285 223 153 185 224 229 172 133 227 167 250 233 195 239 240 233 239 239 247
331 323 319 287 159 100 5 357 12 120 44 311 308 176 194 176 210 247 248 227 231 236 110 257 269 93 141 219 166 232 175 226 320 187 104 115 86 258 132 238 250 265 246 216 225
326 316 306 289 246 308 356 36 133 43 310 341 349 24 40 234 233 250 248 234 252 234 182 244 261 210 230 215 189 50 131 71 85 86 11 199 171 246 184 197 193 209 186 171 175
321 307 287 265 167 172 354 119 46 112 317 279 302 36 41 318 289 192 177 181 192 187 284 336 310 283 135 234 135 104 59 340 343 355 229 206 140 250 223 219 179 182 174 177 184
318 299 267 245 212 316 29 59 111 247 250 324 334 315 87 15 302 301 95 117 16 142 151 277 312 2 274 229 227 123 156 154 238 225 267 330 259 273 278 213 193 184 187 188 184
328 302 266 206 190 119 76 73 205 212 324 349 27 16 339 65 42 350 32 142 199 202 140 131 262 301 103 256 116 257 240 212 127 59 76 287 306 306 191 237 181 199 189 181 179
334 316 257 161 157 124 73 225 234 243 352 53 43 120 270 337 34 9 14 214 216 237 192 204 206 248 340 27 11 194 162 286 22 260 269 264 274 237 230 230 211 185 184 190 203
347 49 142 147 150 112 142 228 270 261 149 115 197 254 244 162 126 299 256 327 349 289 293 120 107 288 58 30 249 332 325 49 111 123 191 265 258 209 222 209 191 191 191 187 197
14 65 149 146 97 52 165 204 226 187 179 123 119 121 302 166 134 227 282 211 33 355 319 320 134 354 224 261 280 218 208 134 126 249 226 165 270 270 241 190 180 189 190 198 195
12 63 148 180 125 264 273 257 242 182 188 189 2 97 104 282 167 196 194 290 3 54 165 285 15 18 339 356 5 12 270 134 105 80 201 153 267 322 148 158 178 183 199 201 208
38 45 100 193 66 144 233 291 277 65 132 167 150 98 109 209 276 199 245 214 320 91 71 34 103 153 211 234 212 305 295 133 139 123 213 230 259 246 229 203 196 196 198 206 205
41 45 57 0 356 344 248 174 277 206 55 72 75 75 5 9 353 289 293 306 102 79 80 85 22 198 251 255 268 288 307 225 76 213 174 295 226 245 220 207 207 206 196 187 161
63 51 65 39 329 355 353 26 37 194 187 236 139 168 148 102 191 275 200 194 242 26 88 54 289 33 300 331 330 88 20 48 63 39 44 88 271 264 206 209 233 219 184 150 136
55 119 189 359 7 70 253 282 293 211 119 216 203 136 110 162 324 303 233 272 181 158 150 128 105 52 283 340 327 12 345 9 100 97 278 274 280 32 57 89 121 121 139 137 137